Flag for U.S.A. Weather past 2 weeks in Tacoma, Washington, U.S.A.

Now
74 °F

Sunny.


Feels Like: 77 °F
Forecast: 61 / 91 °F
Wind: 3 mph from Northeast

Location: Tacoma Narrows Airport

Current Time: Jul 2, 2015 at 9:42:08 AM

Latest Report: Jul 2, 2015 at 8:53 AM


Visibility: 10 mi

Pressure: 30.02 "Hg

Humidity: 48%

Dew point: 53 °F

Location of TacomaLocation

Historic Weather in Tacoma — Graph

°F

Tacoma temperature yesterday

Maximum temperature yesterday: 83 °F (at 1:53 PM)
Minimum temperature yesterday: 59 °F (at 5:53 AM)
Average temperature yesterday: 73 °F

Past Weeks' High & Low Weather Summary

 TemperatureHumidityPressure
High87 °F (Jun 27, 5:53 PM)90% (Jun 30, 1:53 AM)30.17 "Hg (Jun 30, 1:53 AM)
Low51 °F (Jun 20, 5:53 AM)23% (Jun 23, 4:53 PM)29.88 "Hg (Jun 27, 8:53 PM)
Average68 °F58%30.03 "Hg
* Reported Jun 17 7:53 AM — Jul 2 7:53 AM, Tacoma, Weather by CustomWeather, © 2015

Note: Actual official high and low records may vary slightly from our data, if they occured in-between our weather recording intervals... More about our weather records

Advertising

Tacoma weather history for previous 24 hours

 ConditionsComfort  
Time TempWeatherWind HumidityBarometerVisibility
7:53 AM
Thu, Jul 2
72 °FSunny.3 mph55%30.02 "Hg10 mi
6:53 AM66 °FSunny.No wind68%30.01 "Hg10 mi
5:53 AM63 °FClear.No wind70%30.01 "Hg10 mi
4:53 AM64 °FClear.3 mph70%29.99 "Hg10 mi
3:53 AM65 °FClear.No wind66%29.99 "Hg10 mi
2:53 AM67 °FClear.No wind63%29.97 "Hg10 mi
1:53 AM68 °FClear.No wind59%29.97 "Hg10 mi
12:53 AM73 °FClear.3 mph51%29.96 "Hg10 mi
11:53 PM
Wed, Jul 1
75 °FClear.7 mph48%29.95 "Hg10 mi
10:53 PM73 °FClear.6 mph51%29.95 "Hg10 mi
9:53 PM76 °FSunny.5 mph48%29.95 "Hg10 mi
8:53 PM78 °FSunny.13 mph43%29.93 "Hg10 mi
7:53 PM82 °FSunny.10 mph40%29.94 "Hg10 mi
6:53 PM82 °FSunny.12 mph40%29.93 "Hg10 mi
5:53 PM83 °FSunny.14 mph37%29.94 "Hg10 mi
4:53 PM82 °FSunny.10 mph40%29.94 "Hg10 mi
3:53 PM82 °FSunny.7 mph41%29.96 "Hg10 mi
2:53 PM81 °FSunny.6 mph41%29.97 "Hg10 mi
1:53 PM83 °FSunny.9 mph38%29.99 "Hg10 mi
12:53 PM79 °FSunny.14 mph41%30.01 "Hg10 mi
11:53 AM78 °FSunny.14 mph42%30.01 "Hg10 mi
10:53 AM73 °FSunny.14 mph50%30.03 "Hg10 mi
9:53 AM70 °FSunny.9 mph55%30.03 "Hg10 mi
Weather by CustomWeather, © 2015

See weather overviewHow to use our weather pages